UAE9890 OMDW-ZBAA

Flight info

Callsign UAE9890
Flight time N/A
Altitude 31000
Route NOLSU DCT GOMTA DCT ITLOB DCT EGTAL DCT APELO DCT LAKIV/N0499F330 DCT KALAT G325 PURPA/K0893S1010 B215 MAGIV W187 SAKLU/K0891S1070 W187 IBANO B215 NUKTI DCT GOVSA DCT IDSIP DCT DKO W69 GUVBA GUVBA4E
Aircraft B77L/H-SDE1E2E3FGHIJ2J3J4J5M1RWXY/LB1D1

Departure

Time 2026-04-29 20:14
Airport Al Maktoum International Airport (OMDW)

Arrival

Time N/A
Airport Beijing Capital International Airport (ZBAA)
Time Latitude Longitude Altitude Speed Heading
2026-04-29 19:52 24.89357 55.14390 165 ft 0 kts 303°
2026-04-29 20:00 24.89348 55.14405 165 ft 3 kts 303°
2026-04-29 20:00 24.89337 55.14423 165 ft 3 kts 303°
2026-04-29 20:01 24.89326 55.14442 165 ft 3 kts 303°
2026-04-29 20:01 24.89315 55.14460 165 ft 3 kts 313°
2026-04-29 20:01 24.89301 55.14473 165 ft 3 kts 350°
2026-04-29 20:01 24.89291 55.14472 166 ft 1 kts 31°
2026-04-29 20:02 24.89277 55.14463 166 ft 3 kts 31°
2026-04-29 20:02 24.89263 55.14454 166 ft 1 kts 31°
2026-04-29 20:02 24.89262 55.14454 166 ft 0 kts 31°
2026-04-29 20:05 24.89265 55.14456 166 ft 2 kts 32°
2026-04-29 20:05 24.89285 55.14469 166 ft 5 kts 32°
2026-04-29 20:05 24.89322 55.14495 165 ft 8 kts 32°
2026-04-29 20:05 24.89377 55.14532 165 ft 10 kts 29°
2026-04-29 20:06 24.89446 55.14577 165 ft 13 kts 31°
2026-04-29 20:06 24.89527 55.14632 164 ft 15 kts 31°
2026-04-29 20:06 24.89621 55.14695 164 ft 17 kts 32°
2026-04-29 20:06 24.89727 55.14766 191 ft 19 kts 31°
2026-04-29 20:07 24.89837 55.14839 163 ft 19 kts 31°
2026-04-29 20:07 24.89935 55.14909 163 ft 15 kts 43°
2026-04-29 20:07 24.89934 55.15016 163 ft 16 kts 120°
2026-04-29 20:07 24.89876 55.15120 163 ft 16 kts 121°
2026-04-29 20:08 24.89815 55.15230 163 ft 17 kts 121°
2026-04-29 20:08 24.89772 55.15307 163 ft 18 kts 121°
2026-04-29 20:08 24.89680 55.15474 163 ft 19 kts 121°
2026-04-29 20:08 24.89610 55.15600 163 ft 19 kts 121°
2026-04-29 20:09 24.89541 55.15726 163 ft 19 kts 121°
2026-04-29 20:09 24.89471 55.15852 163 ft 19 kts 121°
2026-04-29 20:09 24.89401 55.15978 163 ft 19 kts 121°
2026-04-29 20:09 24.89331 55.16103 163 ft 19 kts 121°
2026-04-29 20:10 24.89261 55.16229 163 ft 19 kts 121°
2026-04-29 20:10 24.89192 55.16355 163 ft 19 kts 121°
2026-04-29 20:10 24.89122 55.16481 163 ft 20 kts 122°
2026-04-29 20:10 24.89052 55.16607 163 ft 20 kts 121°
2026-04-29 20:11 24.88981 55.16735 163 ft 20 kts 121°
2026-04-29 20:11 24.88910 55.16863 163 ft 20 kts 121°
2026-04-29 20:11 24.88840 55.16991 163 ft 20 kts 121°
2026-04-29 20:11 24.88769 55.17119 163 ft 20 kts 121°
2026-04-29 20:12 24.88698 55.17246 163 ft 20 kts 121°
2026-04-29 20:12 24.88631 55.17376 163 ft 20 kts 104°
2026-04-29 20:12 24.88693 55.17474 162 ft 16 kts 33°
2026-04-29 20:12 24.88792 55.17537 162 ft 17 kts 28°
2026-04-29 20:13 24.88863 55.17546 163 ft 9 kts 308°
2026-04-29 20:13 24.88899 55.17484 164 ft 13 kts 302°
2026-04-29 20:13 24.89020 55.17267 163 ft 65 kts 301°
2026-04-29 20:13 24.89391 55.16596 161 ft 139 kts 301°
2026-04-29 20:14 24.90015 55.15468 177 ft 202 kts 302°
2026-04-29 20:14 24.90778 55.14089 646 ft 217 kts 301°
2026-04-29 20:14 24.91540 55.12696 1508 ft 203 kts 304°
2026-04-29 20:14 24.92287 55.11348 2163 ft 212 kts 305°
2026-04-29 20:15 24.93070 55.09942 2753 ft 215 kts 304°
2026-04-29 20:15 24.93854 55.08527 3420 ft 220 kts 304°
2026-04-29 20:15 24.94662 55.07070 3920 ft 225 kts 304°
2026-04-29 20:15 24.95404 55.05539 4349 ft 231 kts 289°
2026-04-29 20:16 24.95418 55.03747 4775 ft 242 kts 255°
2026-04-29 20:16 24.94532 55.02170 5351 ft 246 kts 225°
2026-04-29 20:16 24.93119 55.01110 5919 ft 247 kts 214°
2026-04-29 20:16 24.91617 55.00206 6454 ft 246 kts 202°
2026-04-29 20:17 24.89905 55.00058 6891 ft 254 kts 167°
2026-04-29 20:17 24.88378 55.00973 7429 ft 254 kts 136°
2026-04-29 20:17 24.87330 55.02564 7824 ft 260 kts 123°
2026-04-29 20:17 24.86433 55.04302 8250 ft 262 kts 113°
2026-04-29 20:18 24.86199 55.06312 8532 ft 276 kts 82°
2026-04-29 20:18 24.86633 55.08423 8743 ft 288 kts 77°
2026-04-29 20:18 24.87102 55.10601 9153 ft 297 kts 78°
2026-04-29 20:18 24.87567 55.12856 9546 ft 307 kts 79°
2026-04-29 20:19 24.88036 55.15174 10025 ft 312 kts 79°
2026-04-29 20:19 24.88513 55.17548 10383 ft 326 kts 79°
2026-04-29 20:19 24.89192 55.20006 10511 ft 347 kts 69°
2026-04-29 20:19 24.90171 55.22521 10668 ft 367 kts 67°
2026-04-29 20:20 24.91222 55.25172 10840 ft 387 kts 68°
2026-04-29 20:20 24.92287 55.27943 11252 ft 398 kts 68°
2026-04-29 20:20 24.93348 55.30779 11809 ft 404 kts 69°
2026-04-29 20:20 24.94413 55.33662 12531 ft 407 kts 69°
2026-04-29 20:21 24.95480 55.36555 13266 ft 409 kts 69°
2026-04-29 20:21 24.96558 55.39473 13908 ft 413 kts 69°
2026-04-29 20:21 24.97632 55.42434 14399 ft 420 kts 70°
2026-04-29 20:21 24.98667 55.45466 14890 ft 426 kts 70°
2026-04-29 20:22 24.99697 55.48549 15409 ft 432 kts 70°
2026-04-29 20:22 25.00748 55.51674 15943 ft 437 kts 70°
2026-04-29 20:22 25.01818 55.54831 16457 ft 442 kts 69°
2026-04-29 20:22 25.02905 55.58030 16976 ft 448 kts 69°
2026-04-29 20:23 25.04004 55.61267 17457 ft 454 kts 69°
2026-04-29 20:23 25.05100 55.64497 17958 ft 459 kts 69°
2026-04-29 20:23 25.06225 55.67820 18421 ft 464 kts 69°
2026-04-29 20:23 25.07358 55.71168 18865 ft 468 kts 69°
2026-04-29 20:24 25.08498 55.74544 19351 ft 471 kts 69°
2026-04-29 20:24 25.09647 55.77947 19809 ft 475 kts 69°
2026-04-29 20:24 25.10804 55.81374 20305 ft 478 kts 69°
2026-04-29 20:24 25.11964 55.84821 20781 ft 481 kts 69°
2026-04-29 20:25 25.13134 55.88297 21216 ft 485 kts 69°
2026-04-29 20:25 25.14311 55.91808 21650 ft 490 kts 69°
2026-04-29 20:25 25.15494 55.95338 22123 ft 492 kts 69°
2026-04-29 20:25 25.16685 55.98895 22568 ft 496 kts 69°
2026-04-29 20:26 25.17494 56.01312 22835 ft 498 kts 69°
2026-04-29 20:26 25.19094 56.06093 23356 ft 504 kts 69°
2026-04-29 20:26 25.20312 56.09735 23677 ft 507 kts 69°
2026-04-29 20:26 25.21281 56.13480 23931 ft 511 kts 82°
2026-04-29 20:27 25.21340 56.17387 24204 ft 509 kts 96°
2026-04-29 20:27 25.21124 56.20019 24346 ft 513 kts 97°
2026-04-29 20:27 25.20698 56.25257 24715 ft 519 kts 96°
2026-04-29 20:27 25.20414 56.29233 25123 ft 520 kts 96°
2026-04-29 20:28 25.20165 56.33218 25452 ft 522 kts 95°
2026-04-29 20:28 25.19942 56.37230 25722 ft 526 kts 95°
2026-04-29 20:28 25.19726 56.41272 26009 ft 529 kts 95°
2026-04-29 20:28 25.19508 56.45340 26312 ft 532 kts 95°
2026-04-29 20:29 25.19284 56.49424 26626 ft 534 kts 95°
2026-04-29 20:29 25.19054 56.53525 26914 ft 537 kts 95°
2026-04-29 20:29 25.18793 56.57656 27195 ft 540 kts 97°
2026-04-29 20:29 25.18265 56.61760 27434 ft 541 kts 103°
2026-04-29 20:30 25.17541 56.65848 27674 ft 544 kts 103°
2026-04-29 20:30 25.16789 56.69952 27932 ft 547 kts 103°
2026-04-29 20:30 25.16033 56.74069 28187 ft 549 kts 103°
2026-04-29 20:30 25.15281 56.78208 28441 ft 551 kts 103°
2026-04-29 20:31 25.14535 56.82371 28684 ft 553 kts 103°
2026-04-29 20:31 25.13797 56.86541 28950 ft 555 kts 103°
2026-04-29 20:31 25.13061 56.90724 29241 ft 555 kts 103°
2026-04-29 20:31 25.12330 56.94891 29737 ft 551 kts 102°
2026-04-29 20:32 25.11603 56.99036 30122 ft 550 kts 103°
2026-04-29 20:32 25.10874 57.03174 30447 ft 548 kts 103°
2026-04-29 20:32 25.10145 57.07296 30707 ft 549 kts 103°
2026-04-29 20:32 25.09658 57.10042 30724 ft 551 kts 103°
2026-04-29 20:33 25.07939 57.19707 30748 ft 547 kts 103°
2026-04-29 20:33 25.06470 57.27934 30747 ft 545 kts 103°
2026-04-29 20:34 25.05002 57.36130 30752 ft 545 kts 103°
2026-04-29 20:34 25.03529 57.44326 30757 ft 545 kts 103°
2026-04-29 20:35 25.02049 57.52538 30741 ft 547 kts 103°
2026-04-29 20:35 25.00563 57.60750 30751 ft 546 kts 103°
2026-04-29 20:36 24.99084 57.68904 30754 ft 546 kts 103°
2026-04-29 20:36 24.97590 57.77113 30749 ft 546 kts 103°
2026-04-29 20:37 24.96091 57.85322 30747 ft 546 kts 103°
2026-04-29 20:37 24.94587 57.93528 30754 ft 546 kts 103°
2026-04-29 20:38 24.93081 58.01723 30748 ft 546 kts 103°
2026-04-29 20:38 24.91569 58.09923 30744 ft 546 kts 103°
2026-04-29 20:39 24.90053 58.18117 30739 ft 545 kts 103°
2026-04-29 20:39 24.88535 58.26296 30741 ft 544 kts 103°
2026-04-29 20:40 24.87017 58.34454 30740 ft 544 kts 103°
2026-04-29 20:40 24.85493 58.42612 30740 ft 544 kts 103°
2026-04-29 20:41 24.83967 58.50758 30739 ft 544 kts 103°
2026-04-29 20:41 24.82434 58.58916 30742 ft 544 kts 103°
2026-04-29 20:42 24.80895 58.67076 30736 ft 545 kts 103°
2026-04-29 20:42 24.79350 58.75247 30738 ft 545 kts 103°
2026-04-29 20:43 24.77810 58.83365 30735 ft 546 kts 103°
2026-04-29 20:43 24.76245 58.91590 30737 ft 546 kts 103°
2026-04-29 20:44 24.74696 58.99710 30734 ft 546 kts 103°
2026-04-29 20:44 24.73133 59.07880 30733 ft 546 kts 103°
2026-04-29 20:45 24.71899 59.16118 30723 ft 546 kts 96°
2026-04-29 20:45 24.71203 59.24437 30729 ft 546 kts 96°
2026-04-29 20:46 24.70510 59.32758 30727 ft 547 kts 96°
2026-04-29 20:46 24.69775 59.41083 30715 ft 547 kts 96°
2026-04-29 20:47 24.69016 59.49403 30719 ft 547 kts 96°
2026-04-29 20:47 24.68376 59.56373 30715 ft 546 kts 96°
2026-04-29 20:48 24.67488 59.66019 30716 ft 545 kts 96°
2026-04-29 20:48 24.66721 59.74312 30712 ft 545 kts 96°
2026-04-29 20:49 24.65950 59.82600 30718 ft 545 kts 96°
2026-04-29 20:49 24.65175 59.90883 30716 ft 545 kts 96°
2026-04-29 20:50 24.64527 59.97772 30710 ft 545 kts 96°
2026-04-29 20:50 24.63742 60.06069 30711 ft 546 kts 96°
2026-04-29 20:51 24.62951 60.14373 30710 ft 547 kts 96°
2026-04-29 20:51 24.62156 60.22680 30710 ft 547 kts 96°
2026-04-29 20:52 24.61353 60.31018 30798 ft 551 kts 96°
2026-04-29 20:52 24.60949 60.35198 31101 ft 550 kts 96°
2026-04-29 20:52 24.60545 60.39366 31525 ft 546 kts 96°